[[{"header":{"parameterUnit":"m.s-1","parameterCategory":1,"la1":30.2991,"la2":30.254,"lo1":-89.0895,"lo2":-89.0444,"dy":0.0017,"dx":0.0017,"nx":28,"ny":28,"refTime":"2023-08-29T03:00:00:Z","depth":0,"parameterNumber":2,"parameterNumberName":"U-component_of_WINDS"},"data":[0,0,0,0,0,0,0,0,0,0,0,0,0,0,0,0,0,0,0,0,0,0,0,0,0,0,0,0,0,0,0,0,0,0,0,0,0,0,0,0,0,0,0,0,0,0,0,0,0,0,0,0,0,0,0,0,0,0,1.5226,1.5227,0,1.53,1.5301,1.5302,1.5316,1.5315,1.5314,1.5314,1.5393,1.5396,1.5398,0,0,0,0,0,0,0,0,0,0,0,0,0,1.51,1.5102,1.5226,1.5227,1.5228,1.53,1.5301,1.5302,1.5316,1.5315,1.5314,1.5314,1.5392,1.5395,1.5398,0,0,0,0,0,0,0,0,0,0,0,0,0,1.5162,1.5103,1.5226,1.5243,1.5245,1.53,1.5301,1.5303,1.5316,1.5315,1.5314,1.5313,1.5391,1.5395,1.5399,1.5442,0,0,1.5411,1.5413,0,0,0,0,0,0,0,0,1.5159,1.5167,1.524,1.5242,1.5245,1.5298,1.5286,1.535,1.5316,1.5289,1.5314,1.5313,1.5362,1.5369,1.5385,1.5446,1.5449,1.5412,1.5414,1.5416,1.5417,0,0,0,0,0,0,0,1.5154,1.5164,1.5255,1.5241,1.5244,1.5249,1.5257,1.5298,1.533,1.5291,1.5293,1.5301,1.5363,1.5381,1.5387,1.5451,1.5411,1.5415,1.5418,1.5419,1.5555,1.5556,0,0,0,0,0,0,1.5147,1.516,1.5253,1.5258,1.5198,1.5252,1.526,1.5282,1.533,1.5336,1.5302,1.5301,1.5374,1.5382,1.5389,1.5445,1.5416,1.5419,1.5422,1.5553,1.5555,1.5556,0,0,0,0,0,0,1.5144,1.5155,1.525,1.5209,1.5222,1.5255,1.5278,1.5284,1.5301,1.5337,1.5344,1.5313,1.5374,1.5384,1.543,1.5448,1.5421,1.5425,1.5552,1.5554,1.5556,1.5556,0,0,0,0,0,0,1.514,1.5154,1.5169,1.5209,1.5224,1.5287,1.528,1.5286,1.5307,1.5308,1.535,1.5356,1.5374,1.5423,1.5434,1.5453,1.5428,1.5551,1.5553,1.5555,1.5554,1.5557,1.556,0,0,0,0,0,1.5135,1.5166,1.517,1.5181,1.5244,1.5288,1.5297,1.5316,1.5309,1.5326,1.535,1.5355,1.5444,1.5428,1.5439,1.546,1.5549,1.5552,1.5555,1.5553,1.5557,1.556,0,0,0,0,0,0,1.5127,1.5172,1.5176,1.522,1.525,1.529,1.5312,1.5319,1.5352,1.5351,1.5375,1.5384,1.5429,1.5449,1.543,1.5507,1.5497,1.5502,1.5491,1.5495,1.5498,1.5492,1.5431,0,0,0,0,0,1.5131,1.5162,1.5199,1.5235,1.525,1.5278,1.5298,1.5311,1.5343,1.5356,1.5383,1.5416,1.5452,1.5475,1.5509,1.5558,1.5568,1.5578,1.5581,1.5583,1.5587,1.5617,1.5622,1.5565,1.5565,1.5565,0,0,1.5138,1.5166,1.5184,1.5234,1.5259,1.5292,1.5289,1.5324,1.535,1.5362,1.5407,1.5428,1.5466,1.5514,1.5536,1.5532,1.5606,1.5586,1.5588,1.5591,1.562,1.5625,1.563,1.5567,1.5566,1.5566,0,0,1.5168,1.5192,1.5225,1.525,1.5288,1.5307,1.5315,1.5355,1.5369,1.5415,1.5425,1.5457,1.5518,1.5545,1.5567,1.561,1.5617,1.5621,1.5636,1.5665,1.5669,1.5673,1.5691,1.5696,1.5625,1.5625,1.5625,0,1.5172,1.5222,1.5241,1.5277,1.5299,1.5312,1.5347,1.5371,1.5418,1.5435,1.5429,1.5507,1.5533,1.5589,1.56,1.5616,1.5628,1.5616,1.5667,1.5671,1.5675,1.5692,1.5698,1.5626,1.5626,1.5626,1.5626,0,1.5226,1.5261,1.5284,1.5329,1.5354,1.5389,1.5416,1.5439,1.545,1.5471,1.5519,1.5551,1.5594,1.5608,1.5619,1.5666,1.5662,1.5662,1.5652,1.5681,1.5697,1.5703,1.5626,1.5626,1.5626,1.5626,0,0,1.5252,1.5309,1.5317,1.5339,1.5382,1.541,1.5447,1.5488,1.5509,1.5542,1.5575,1.5627,1.5628,1.5652,1.5667,1.5692,1.5727,1.5689,1.569,1.5696,1.5783,1.5784,1.5791,1.5732,1.5733,1.5734,1.5781,0,1.5288,1.5353,1.5373,1.5428,1.5461,1.5475,1.5508,1.5539,1.556,1.5593,1.5616,1.5653,1.565,1.5666,1.5691,1.5717,1.5745,1.5714,1.5764,1.5766,1.5754,1.5799,1.5799,1.5841,1.5787,1.5788,1.5789,0,1.5339,1.5373,1.5431,1.5472,1.5487,1.5515,1.5556,1.5587,1.5624,1.5638,1.5666,1.568,1.5721,1.5709,1.5768,1.5746,1.5769,1.5785,1.5787,1.5793,1.5779,1.5807,1.5855,1.5862,1.5799,1.5798,1.5797,0,1.5353,1.5414,1.5457,1.5475,1.5524,1.5544,1.5566,1.5602,1.5626,1.5662,1.5679,1.572,1.5742,1.5775,1.5799,1.5788,1.5857,1.5846,1.5871,1.587,1.5884,1.5883,1.5937,1.5897,1.5897,1.5897,1.5897,0,1.5392,1.5427,1.5464,1.549,1.5531,1.5555,1.5596,1.5618,1.5651,1.5684,1.5699,1.5729,1.576,1.5795,1.5815,1.5862,1.5872,1.5885,1.589,1.5884,1.5883,1.5899,1.5897,1.5899,1.5898,1.5898,1.5898,0,1.5415,1.544,1.5489,1.5532,1.5544,1.5572,1.561,1.5637,1.5659,1.5701,1.5712,1.5748,1.579,1.5818,1.5873,1.5887,1.5938,1.5942,1.5925,1.5928,1.5951,1.5949,1.6018,1.6029,1.5981,1.5981,1.5981,0,1.5438,1.5465,1.5512,1.5534,1.5556,1.5592,1.5618,1.5643,1.5669,1.5715,1.5738,1.5781,1.5817,1.5886,1.5917,1.596,1.5966,1.5987,1.5972,1.5966,1.5968,1.5966,1.597,1.599,1.599,1.599,1.5991,0,1.5477,1.5489,1.5523,1.5564,1.5594,1.5627,1.566,1.5678,1.571,1.5739,1.5783,1.5811,1.5868,1.5912,1.5958,1.5982,1.5993,1.5995,1.6003,1.5998,1.5987,1.5995,1.5933,1.5993,1.5993,1.5993,1.5993,1.5993,1.5501,1.5527,1.5564,1.5604,1.5632,1.5663,1.5692,1.5718,1.5754,1.5802,1.5815,1.5861,1.5901,1.5964,1.5989,1.6027,1.6025,1.6036,1.6039,1.6042,1.6043,1.5981,1.6036,1.6036,1.6036,1.6036,1.6036,0,1.5542,1.5567,1.5603,1.5649,1.5681,1.5687,1.5726,1.5752,1.5792,1.5827,1.5863,1.5915,1.5959,1.5994,1.604,1.6064,1.607,1.6075,1.6074,1.608,1.6042,1.603,1.6069,1.6069,1.6069,1.6069,1.6069,1.6069,1.5567,1.5612,1.5629,1.5689,1.5714,1.5759,1.578,1.581,1.5839,1.5896,1.5932,1.5954,1.5991,1.604,1.6081,1.609,1.6107,1.6111,1.6122,1.6086,1.6082,1.6078,1.6068,1.6114,1.6115,1.6157,1.6158,1.6158]},{"header":{"parameterUnit":"m.s-1","parameterCategory":1,"la1":30.2991,"la2":30.254,"lo1":-89.0895,"lo2":-89.0444,"dy":0.0017,"dx":0.0017,"nx":28,"ny":28,"refTime":"2023-08-29T03:00:00:Z","depth":0,"parameterNumber":3,"parameterNumberName":"V-component_of_WINDS"},"data":[0,0,0,0,0,0,0,0,0,0,0,0,0,0,0,0,0,0,0,0,0,0,0,0,0,0,0,0,0,0,0,0,0,0,0,0,0,0,0,0,0,0,0,0,0,0,0,0,0,0,0,0,0,0,0,0,0,0,-4.4545,-4.4546,0,-4.4591,-4.4591,-4.4592,-4.4634,-4.4635,-4.4635,-4.4636,-4.4678,-4.4679,-4.4679,0,0,0,0,0,0,0,0,0,0,0,0,0,-4.4493,-4.4494,-4.4545,-4.4546,-4.4547,-4.4591,-4.4591,-4.4592,-4.4634,-4.4635,-4.4635,-4.4636,-4.4678,-4.4679,-4.4679,0,0,0,0,0,0,0,0,0,0,0,0,0,-4.4525,-4.4494,-4.4545,-4.4573,-4.4576,-4.4591,-4.4591,-4.4592,-4.4634,-4.4635,-4.4636,-4.4636,-4.4678,-4.4678,-4.4679,-4.4669,0,0,-4.4682,-4.4683,0,0,0,0,0,0,0,0,-4.4523,-4.4527,-4.4568,-4.4571,-4.4574,-4.4608,-4.4589,-4.4618,-4.4634,-4.4612,-4.4636,-4.4637,-4.4654,-4.4657,-4.4663,-4.4671,-4.4673,-4.4682,-4.4683,-4.4683,-4.4684,0,0,0,0,0,0,0,-4.4521,-4.4525,-4.4563,-4.4569,-4.4573,-4.4583,-4.4588,-4.4594,-4.4627,-4.4614,-4.4617,-4.4622,-4.4655,-4.4662,-4.4665,-4.4673,-4.4682,-4.4683,-4.4684,-4.4684,-4.4677,-4.4676,0,0,0,0,0,0,-4.4515,-4.4523,-4.4562,-4.4565,-4.455,-4.4583,-4.4589,-4.4596,-4.4628,-4.4633,-4.4621,-4.4624,-4.466,-4.4663,-4.4666,-4.4657,-4.4683,-4.4684,-4.4685,-4.4677,-4.4677,-4.4676,0,0,0,0,0,0,-4.4514,-4.4518,-4.456,-4.4545,-4.4551,-4.4583,-4.4591,-4.4597,-4.4603,-4.4633,-4.4639,-4.4622,-4.4661,-4.4665,-4.4669,-4.4659,-4.4685,-4.4685,-4.4678,-4.4677,-4.4676,-4.4637,0,0,0,0,0,0,-4.4512,-4.4517,-4.4514,-4.4544,-4.4552,-4.4562,-4.459,-4.4597,-4.4605,-4.4609,-4.4636,-4.4641,-4.4662,-4.4667,-4.467,-4.4661,-4.4686,-4.4679,-4.4678,-4.4676,-4.464,-4.4635,-4.4631,0,0,0,0,0,-4.451,-4.45,-4.4513,-4.4518,-4.4548,-4.4561,-4.4565,-4.4591,-4.4604,-4.4601,-4.4621,-4.464,-4.466,-4.4667,-4.467,-4.4661,-4.468,-4.4678,-4.4677,-4.4642,-4.4636,-4.4631,0,0,0,0,0,0,-4.4464,-4.4504,-4.452,-4.4519,-4.4537,-4.4569,-4.4565,-4.4584,-4.4597,-4.46,-4.463,-4.4636,-4.4636,-4.4649,-4.4657,-4.4654,-4.4673,-4.4672,-4.4645,-4.464,-4.4636,-4.4632,-4.4687,0,0,0,0,0,-4.4455,-4.4463,-4.4497,-4.4493,-4.4502,-4.4532,-4.4539,-4.4557,-4.4576,-4.4583,-4.4603,-4.462,-4.463,-4.4636,-4.4647,-4.4643,-4.4649,-4.4638,-4.4634,-4.4631,-4.4629,-4.4628,-4.4624,-4.467,-4.467,-4.467,0,0,-4.4434,-4.4457,-4.446,-4.4485,-4.4501,-4.4509,-4.4538,-4.4544,-4.455,-4.4584,-4.4589,-4.4605,-4.4625,-4.4625,-4.4626,-4.4636,-4.4618,-4.4628,-4.4625,-4.4625,-4.4626,-4.4622,-4.4618,-4.4669,-4.4669,-4.4669,0,0,-4.44,-4.4418,-4.4418,-4.4434,-4.4459,-4.448,-4.448,-4.4509,-4.4522,-4.4528,-4.4554,-4.4562,-4.4578,-4.4593,-4.4602,-4.4577,-4.4595,-4.458,-4.4557,-4.4556,-4.4553,-4.455,-4.4541,-4.4537,-4.4578,-4.4578,-4.4578,0,-4.437,-4.4384,-4.4415,-4.4421,-4.4431,-4.4465,-4.4465,-4.4479,-4.4505,-4.4511,-4.4523,-4.4547,-4.4563,-4.4567,-4.4562,-4.4568,-4.4569,-4.4576,-4.4551,-4.4548,-4.4546,-4.4538,-4.4534,-4.4576,-4.4576,-4.4577,-4.4577,0,-4.4347,-4.4356,-4.4353,-4.438,-4.439,-4.4393,-4.4424,-4.4431,-4.445,-4.4469,-4.4476,-4.4497,-4.4514,-4.4517,-4.4534,-4.4524,-4.453,-4.4546,-4.4565,-4.4539,-4.4532,-4.4529,-4.4573,-4.4574,-4.4575,-4.4575,0,0,-4.4282,-4.4329,-4.4327,-4.4341,-4.4373,-4.438,-4.4385,-4.4403,-4.4409,-4.4426,-4.4431,-4.4446,-4.4462,-4.4473,-4.4493,-4.4492,-4.4472,-4.4509,-4.451,-4.4501,-4.4463,-4.445,-4.4446,-4.4485,-4.4485,-4.4485,-4.4461,0,-4.4253,-4.4265,-4.4294,-4.4297,-4.4306,-4.434,-4.4345,-4.4364,-4.4383,-4.4393,-4.4414,-4.4425,-4.4445,-4.4452,-4.4453,-4.4474,-4.4465,-4.4477,-4.4489,-4.4489,-4.4481,-4.4442,-4.4428,-4.4404,-4.4459,-4.4458,-4.4458,0,-4.4219,-4.4238,-4.4242,-4.4275,-4.428,-4.4284,-4.4304,-4.4314,-4.4337,-4.4351,-4.4365,-4.4388,-4.4395,-4.4414,-4.4424,-4.4431,-4.4439,-4.445,-4.445,-4.445,-4.4471,-4.4441,-4.4397,-4.4394,-4.4454,-4.4454,-4.4454,0,-4.4172,-4.4198,-4.4204,-4.4214,-4.4253,-4.4255,-4.4271,-4.4296,-4.4306,-4.4324,-4.4331,-4.4348,-4.4357,-4.437,-4.4397,-4.4409,-4.4404,-4.4426,-4.4415,-4.4415,-4.4411,-4.4411,-4.4367,-4.4418,-4.4418,-4.4418,-4.4418,0,-4.4135,-4.4136,-4.4183,-4.4187,-4.4189,-4.4224,-4.4225,-4.4244,-4.4266,-4.4274,-4.4305,-4.4311,-4.4347,-4.4358,-4.4379,-4.4384,-4.4388,-4.4399,-4.4404,-4.4396,-4.4394,-4.4399,-4.4401,-4.4417,-4.4417,-4.4417,-4.4417,0,-4.4081,-4.4113,-4.4122,-4.416,-4.417,-4.417,-4.4202,-4.4206,-4.4229,-4.4238,-4.4242,-4.4277,-4.4291,-4.432,-4.4342,-4.4356,-4.4356,-4.4366,-4.4348,-4.4352,-4.434,-4.434,-4.4297,-4.4293,-4.4347,-4.4346,-4.4346,0,-4.4055,-4.4057,-4.4096,-4.4105,-4.4121,-4.4133,-4.4145,-4.4179,-4.419,-4.4218,-4.422,-4.4237,-4.4252,-4.4273,-4.43,-4.4317,-4.4327,-4.4311,-4.4329,-4.4321,-4.4326,-4.4325,-4.4326,-4.4306,-4.4305,-4.4305,-4.4304,0,-4.4005,-4.4022,-4.4038,-4.406,-4.4073,-4.4092,-4.4112,-4.4117,-4.4156,-4.4166,-4.4182,-4.4195,-4.4219,-4.4235,-4.4257,-4.4273,-4.4294,-4.4299,-4.4297,-4.4287,-4.4277,-4.4282,-4.4336,-4.4299,-4.4299,-4.43,-4.43,-4.43,-4.3964,-4.3968,-4.3997,-4.4015,-4.4034,-4.4053,-4.406,-4.4085,-4.4099,-4.4123,-4.4143,-4.4157,-4.4182,-4.4214,-4.4229,-4.4241,-4.4251,-4.4249,-4.4248,-4.4247,-4.4243,-4.4277,-4.4245,-4.4245,-4.4245,-4.4245,-4.4245,0,-4.3916,-4.3937,-4.3953,-4.3982,-4.3995,-4.4018,-4.4043,-4.4052,-4.4065,-4.4088,-4.4104,-4.4123,-4.414,-4.4169,-4.4189,-4.4192,-4.4203,-4.4196,-4.4195,-4.4199,-4.4233,-4.4232,-4.4187,-4.4187,-4.4187,-4.4187,-4.4187,-4.4187,-4.3892,-4.3901,-4.3921,-4.394,-4.3961,-4.3977,-4.3989,-4.4007,-4.4026,-4.4047,-4.4062,-4.4082,-4.4107,-4.4129,-4.4146,-4.4154,-4.4159,-4.4149,-4.416,-4.4191,-4.4196,-4.4201,-4.4201,-4.415,-4.415,-4.4126,-4.4125,-4.4125]}]]